Date_and_time,latitude,longitude,wind_speed,RelWindDirFrom,WindDirFrom,air_pressure,air_temperature,relative_humidity,Temp,platform_speed_wrt_ground,air_pressure_at_mean_sea_level,platform_orientation
2019-07-21 23:40,50.630455,-96.9807683333333,4.7,9.1,303,994.63,23.4,37,23.49,0.0,1020.43,360.0
2019-07-21 23:50,50.630455,-96.9807683333333,5.1,8.9,292,994.57,23.9,37,23.51,0.0,1020.35,360.0
2019-07-22 00:00,50.630455,-96.9807666666667,4.6,7.8,285,994.51,24.1,37,23.53,0.0,1020.29,90.0
2019-07-22 00:10,50.630455,-96.9807683333333,7.2,11.8,293,994.46,24.1,36,23.54,0.0,1020.22,90.0
2019-07-22 00:20,50.63046,-96.980765,6.8,10.8,296,994.54,23.6,38,23.40,0.0,1020.32,90.0
2019-07-22 00:30,50.6304683333333,-96.9807666666667,5.6,8.0,295,994.63,23.4,38,23.14,0.0,1020.42,90.0
2019-07-22 00:40,50.6304533333333,-96.98076,4.9,8.8,289,994.64,23.4,40,23.02,0.0,1020.43,90.0
2019-07-22 00:50,50.6304583333333,-96.9807666666667,6.7,11.8,286,994.59,23.4,40,23.23,0.0,1020.38,90.0
2019-07-22 01:00,50.6304566666667,-96.98076,5.9,10.1,283,994.61,23.0,41,23.33,0.0,1020.42,0.0
2019-07-22 01:10,50.630455,-96.9807583333333,4.7,8.1,268,994.62,22.7,43,23.31,0.0,1020.46,0.0
2019-07-22 01:20,50.630455,-96.98076,4.9,7.7,270,994.55,22.4,44,23.21,0.0,1020.42,0.0
2019-07-22 01:30,50.6304533333333,-96.9807633333333,4.4,7.0,266,994.57,22.3,44,23.25,0.0,1020.44,0.0
2019-07-22 01:40,50.6304533333333,-96.9807633333333,5.0,7.4,265,994.53,22.3,45,23.24,0.0,1020.37,0.0
2019-07-22 01:50,50.6304533333333,-96.9807633333333,4.0,6.1,265,994.56,22.1,47,23.21,0.0,1020.41,0.0
2019-07-22 02:00,50.6304516666667,-96.9807633333333,4.5,8.0,274,994.56,21.8,48,23.22,0.0,1020.42,360.0
2019-07-22 02:10,50.6304583333333,-96.980765,4.4,7.2,275,994.55,21.6,48,23.19,0.0,1020.44,360.0
2019-07-22 02:20,50.63045,-96.9807583333333,4.6,7.2,272,994.59,21.3,48,23.21,0.0,1020.50,360.0
2019-07-22 02:30,50.6304516666667,-96.9807566666667,5.1,7.7,270,994.64,20.8,49,23.24,0.0,1020.57,360.0
2019-07-22 02:40,50.6304483333333,-96.9807816666667,4.8,7.1,264,994.68,20.3,50,23.24,0.0,1020.63,360.0
2019-07-22 02:50,50.6304516666667,-96.9807733333333,4.6,8.5,263,994.76,20.0,51,23.22,0.0,1020.74,360.0
2019-07-22 03:00,50.6304533333333,-96.980765,5.0,8.4,261,994.87,19.8,52,23.22,0.0,1020.88,0.0
2019-07-22 03:10,50.63045,-96.9807666666667,5.0,7.2,264,994.88,19.5,53,23.21,0.0,1020.92,0.0
2019-07-22 03:20,50.63045,-96.980765,5.1,8.5,261,994.89,19.1,54,23.19,0.0,1020.95,0.0
2019-07-22 03:30,50.63045,-96.9807683333333,4.2,6.6,258,994.91,18.9,55,23.14,0.0,1020.98,0.0
2019-07-22 03:40,50.63045,-96.9807683333333,5.1,8.0,262,994.89,18.8,55,23.11,0.0,1020.98,0.0
2019-07-22 03:50,50.6304516666667,-96.9807683333333,5.1,7.9,262,994.93,18.6,55,23.00,0.0,1021.04,0.0
2019-07-22 04:00,50.63044,-96.9807433333333,4.9,8.4,262,994.95,18.4,55,22.92,0.0,1021.07,131.7
2019-07-22 04:10,50.630445,-96.980755,5.0,7.5,262,994.99,18.2,56,22.88,0.0,1021.14,131.7
2019-07-22 04:20,50.6304816666667,-96.9807766666667,4.4,7.6,264,995.01,18.1,57,22.82,0.0,1021.19,131.7
2019-07-22 04:30,50.6304533333333,-96.980775,4.5,7.4,262,995.05,17.8,57,22.75,0.0,1021.27,131.7
2019-07-22 04:40,50.63045,-96.98078,4.3,7.3,258,995.10,17.6,58,22.70,0.0,1021.33,131.7
2019-07-22 04:50,50.6304466666667,-96.9807733333333,4.4,6.7,260,995.15,17.5,59,22.67,0.0,1021.41,131.7
2019-07-22 05:00,50.630445,-96.9807683333333,4.4,6.5,266,995.17,17.3,60,22.66,0.0,1021.45,360.0
2019-07-22 05:10,50.630445,-96.9807666666667,4.7,8.1,262,995.23,17.1,60,22.64,0.0,1021.54,360.0
2019-07-22 05:20,50.6304466666667,-96.9807666666667,5.2,7.5,257,995.27,17.0,60,22.64,0.0,1021.59,360.0
2019-07-22 05:30,50.6304666666667,-96.9807616666667,5.0,7.1,252,995.32,16.9,61,22.77,0.0,1021.65,360.0
2019-07-22 05:40,50.6304633333333,-96.980765,5.1,7.3,260,995.42,16.8,61,22.82,0.0,1021.76,360.0
2019-07-22 05:50,50.6304616666667,-96.9807666666667,5.6,7.5,257,995.49,16.8,61,22.82,0.0,1021.85,360.0
2019-07-22 06:00,50.6304583333333,-96.9807666666667,5.3,8.1,263,995.58,16.7,61,22.81,0.0,1021.96,360.0
2019-07-22 06:10,50.6304566666667,-96.9807666666667,4.7,7.5,263,995.68,16.6,62,22.82,0.0,1022.08,360.0
2019-07-22 06:20,50.630455,-96.980765,4.5,7.0,263,995.81,16.4,63,22.81,0.0,1022.22,360.0
2019-07-22 06:30,50.630455,-96.9807633333333,4.5,6.8,266,995.82,16.2,64,22.80,0.0,1022.25,360.0
2019-07-22 06:40,50.6304533333333,-96.980765,4.4,7.0,263,995.83,16.0,65,22.80,0.0,1022.27,360.0
2019-07-22 06:50,50.6304533333333,-96.9807633333333,4.8,7.0,261,995.81,15.9,65,22.78,0.0,1022.26,360.0
2019-07-22 07:00,50.6304533333333,-96.9807633333333,5.0,6.5,263,995.83,15.9,65,22.77,0.0,1022.30,304.8
2019-07-22 07:10,50.6304466666667,-96.9807616666667,4.6,6.7,267,995.85,15.8,65,22.76,0.0,1022.33,304.8
2019-07-22 07:20,50.6304516666667,-96.9807633333333,4.6,7.2,265,995.89,15.7,66,22.76,0.0,1022.38,304.8
2019-07-22 07:30,50.6304516666667,-96.9807633333333,5.1,7.5,261,995.91,15.6,67,22.77,0.0,1022.40,304.8
2019-07-22 07:40,50.6304483333333,-96.9807666666667,5.6,8.0,263,995.93,15.5,67,22.76,0.0,1022.43,304.8
2019-07-22 07:50,50.63045,-96.9807666666667,5.6,8.3,262,995.96,15.5,67,22.78,0.0,1022.48,304.8
2019-07-22 08:00,50.63045,-96.9807666666667,5.7,8.1,261,995.97,15.4,67,22.80,0.0,1022.49,360.0
2019-07-22 08:10,50.630445,-96.980765,5.9,8.4,259,995.99,15.4,67,22.80,0.0,1022.52,360.0
2019-07-22 08:20,50.630445,-96.9807666666667,6.1,8.7,259,995.96,15.3,68,22.78,0.0,1022.50,360.0
2019-07-22 08:30,50.6304716666667,-96.9808033333333,6.1,9.3,259,995.89,15.3,68,22.77,0.0,1022.44,360.0
2019-07-22 08:40,50.6304533333333,-96.98078,5.5,8.0,259,995.91,15.1,70,22.75,0.0,1022.47,360.0
2019-07-22 08:50,50.6304533333333,-96.9807716666667,6.1,8.5,256,995.91,15.0,70,22.74,0.0,1022.48,360.0
2019-07-22 09:00,50.630455,-96.9807716666667,6.1,8.9,246,996.01,14.5,73,22.73,0.0,1022.61,192.6
2019-07-22 09:10,50.6304366666667,-96.9807583333333,6.0,7.7,249,996.07,14.1,76,22.72,0.0,1022.70,192.6
2019-07-22 09:20,50.6304383333333,-96.98077,6.3,8.9,250,996.11,14.1,77,22.68,0.0,1022.74,192.6
2019-07-22 09:30,50.630445,-96.980755,6.0,8.0,253,996.14,14.0,78,22.64,0.0,1022.78,192.6
2019-07-22 09:40,50.6304516666667,-96.98076,5.5,8.2,258,996.19,14.2,78,22.60,0.0,1022.83,192.6
2019-07-22 09:50,50.6304516666667,-96.9807633333333,5.5,9.0,260,996.23,14.4,78,22.59,0.0,1022.86,192.6
2019-07-22 10:00,50.6304566666667,-96.9807716666667,5.3,7.6,256,996.30,14.4,77,22.55,0.0,1022.93,270.0
2019-07-22 10:10,50.630455,-96.98077,5.6,7.2,256,996.31,14.5,77,22.48,0.0,1022.94,270.0
2019-07-22 10:20,50.6304533333333,-96.98077,5.4,7.5,257,996.35,14.6,77,22.51,0.0,1022.98,270.0
2019-07-22 10:30,50.6304516666667,-96.9807666666667,5.3,8.3,263,996.40,14.6,78,22.50,0.0,1023.04,270.0
2019-07-22 10:40,50.6304583333333,-96.9807416666667,5.3,7.8,262,996.41,14.8,77,22.47,0.0,1023.04,270.0
2019-07-22 10:50,50.6304566666667,-96.9808033333333,5.2,7.7,262,996.45,14.9,77,22.45,0.0,1023.10,270.0
2019-07-22 11:00,50.6304516666667,-96.98077,5.9,8.2,259,996.48,15.0,74,22.45,0.0,1023.15,0.0
2019-07-22 11:10,50.6304466666667,-96.9807783333333,5.9,8.3,256,996.48,15.0,74,22.44,0.0,1023.15,0.0
2019-07-22 11:20,50.630445,-96.980765,5.9,8.5,260,996.47,15.3,73,22.42,0.0,1023.13,0.0
2019-07-22 11:30,50.63045,-96.98077,5.5,7.5,262,996.50,15.6,72,22.41,0.0,1023.13,0.0
2019-07-22 11:40,50.63045,-96.9807683333333,5.8,8.0,257,996.51,15.7,71,22.44,0.0,1023.13,0.0
2019-07-22 11:50,50.63045,-96.9807666666667,5.9,9.6,255,996.54,15.8,71,22.48,0.0,1023.16,0.0
2019-07-22 12:00,50.63045,-96.980765,6.5,9.8,255,996.52,15.9,70,22.51,0.0,1023.13,90.0
2019-07-22 12:10,50.63045,-96.980765,5.9,8.4,251,996.51,16.1,71,22.51,0.0,1023.11,90.0
2019-07-22 12:20,50.6304333333333,-96.9807916666667,6.1,8.9,249,996.53,15.9,72,22.48,0.0,1023.13,90.0
2019-07-22 12:30,50.6304466666667,-96.9807666666667,6.5,8.8,255,996.61,16.1,71,22.46,0.0,1023.19,90.0
2019-07-22 12:40,50.6304483333333,-96.9807666666667,6.5,9.9,249,996.59,16.5,71,22.43,0.0,1023.15,90.0
2019-07-22 12:50,50.6304483333333,-96.9807683333333,6.3,8.9,255,996.59,16.8,70,22.38,0.0,1023.13,90.0
2019-07-22 13:00,50.6304466666667,-96.9807666666667,5.9,8.8,255,996.67,17.3,69,22.34,0.0,1023.19,131.7
2019-07-22 13:10,50.6304466666667,-96.9807666666667,6.4,9.3,259,996.69,17.9,67,22.32,0.0,1023.17,131.7
2019-07-22 13:20,50.630455,-96.980765,6.5,10.9,254,996.66,18.3,66,22.32,0.0,1023.12,131.7
2019-07-22 13:30,50.6304483333333,-96.980765,6.6,11.0,259,996.63,18.7,65,22.31,0.0,1023.06,131.7
2019-07-22 13:40,50.630445,-96.9807616666667,6.1,10.0,267,996.58,19.1,64,22.27,0.0,1022.99,131.7
2019-07-22 13:50,50.630005,-96.9807366666667,6.7,10.0,266,996.63,19.5,62,22.23,0.2,1023.00,131.7
2019-07-22 14:00,50.63252,-96.95404,4.0,10.7,330,996.68,20.2,61,22.13,6.2,1023.02,83.0
2019-07-22 14:10,50.6333083333333,-96.9507733333333,10.9,13.1,287,996.46,20.2,59,22.32,0.8,1022.80,83.0
2019-07-22 14:20,50.6332566666667,-96.9507616666667,10.0,13.2,284,996.42,20.7,58,22.37,0.0,1022.73,83.0
2019-07-22 14:30,50.6332716666667,-96.9507733333333,10.4,13.1,293,996.39,21.0,56,22.40,0.0,1022.67,83.0
2019-07-22 14:40,50.63326,-96.9507916666667,10.8,14.1,290,996.31,21.4,54,22.41,0.0,1022.55,83.0
2019-07-22 14:50,50.6332216666667,-96.95079,12.1,15.3,295,996.16,21.7,52,22.41,0.0,1022.36,83.0
2019-07-22 15:00,50.6332833333333,-96.9507533333333,11.7,15.2,296,996.11,21.8,52,22.40,0.0,1022.28,81.6
2019-07-22 15:10,50.633285,-96.9507616666667,10.8,13.6,290,996.15,22.0,53,22.39,0.0,1022.29,81.6
2019-07-22 15:20,50.6327,-96.9524233333333,11.0,14.9,292,996.15,22.2,53,22.39,0.4,1022.27,81.6
2019-07-22 15:30,50.626055,-96.955805,13.0,16.1,280,996.14,22.6,51,22.40,2.5,1022.22,81.6
2019-07-22 15:40,50.6189416666667,-96.953155,9.3,12.7,288,996.24,23.5,49,22.35,2.6,1022.26,81.6
2019-07-22 15:50,50.61286,-96.9461683333333,9.5,12.8,291,996.26,25.5,42,22.27,2.7,1022.16,81.6
2019-07-22 16:00,50.6203966666667,-96.9623816666667,15.2,21.4,302,995.80,24.8,45,22.28,4.6,1021.72,130.8
2019-07-22 16:10,50.6295,-96.9812033333333,13.7,20.3,304,995.91,23.4,46,22.32,5.4,1021.88,130.8
2019-07-22 16:20,50.63044,-96.9807516666667,6.9,10.9,277,996.24,23.9,44,22.37,0.4,1022.18,130.8
2019-07-22 16:30,50.6304383333333,-96.9807616666667,8.0,12.9,285,996.16,24.2,43,22.40,0.0,1022.07,130.8
2019-07-22 16:40,50.6304233333333,-96.9807316666667,6.4,11.3,291,996.15,24.4,42,22.38,0.0,1022.04,130.8
2019-07-22 16:50,50.6304266666667,-96.9807416666667,8.0,12.0,268,996.17,24.6,41,22.53,0.0,1022.04,130.8
2019-07-22 17:00,50.6304283333333,-96.980745,7.4,13.7,282,996.12,24.7,40,22.66,0.0,1021.98,263.0
2019-07-22 17:10,50.63043,-96.980745,8.2,14.7,287,996.15,24.8,39,22.74,0.0,1021.99,263.0
2019-07-22 17:20,50.63043,-96.9807466666667,8.4,13.1,285,996.16,24.9,38,22.82,0.0,1021.98,263.0
2019-07-22 17:30,50.63043,-96.9807466666667,7.7,13.3,273,996.19,25.0,38,22.87,0.0,1021.97,263.0
2019-07-22 17:40,50.6304833333333,-96.9807833333333,7.6,12.6,276,996.14,25.2,38,22.83,0.0,1021.82,263.0
2019-07-22 17:50,50.63043,-96.9807766666667,7.6,12.9,286,996.04,25.3,37,22.69,0.0,1021.75,263.0
2019-07-22 18:00,50.6304416666667,-96.9807433333333,8.1,12.8,266,995.97,25.3,38,22.75,0.0,1021.74,261.5
2019-07-22 18:10,50.6268683333333,-96.9783333333333,7.6,13.8,284,995.95,25.6,37,22.89,1.4,1021.68,261.5
2019-07-22 18:20,50.6448816666667,-96.9513466666667,10.8,19.5,344,995.89,25.0,38,22.76,8.9,1021.63,261.5
2019-07-22 18:30,50.6740516666667,-96.9405716666667,15.9,19.5,337,995.51,24.8,40,22.80,10.8,1021.25,261.5
2019-07-22 18:40,50.699735,-96.9321133333333,13.5,17.7,325,995.80,24.8,41,22.74,9.4,1021.53,261.5
2019-07-22 18:50,50.7060683333333,-96.9291983333333,10.3,13.6,311,995.93,24.8,40,22.84,2.4,1021.66,261.5
2019-07-22 19:00,50.711805,-96.9257183333333,10.0,13.7,310,995.88,25.0,41,22.86,2.2,1021.59,14.2
2019-07-22 19:10,50.7179733333333,-96.9251566666667,11.2,14.7,289,995.85,25.0,39,22.88,2.2,1021.56,14.2
2019-07-22 19:20,50.73094,-96.928255,12.7,19.5,312,995.52,25.2,38,22.89,4.7,1021.21,14.2
2019-07-22 19:30,50.7337616666667,-96.929615,9.3,15.1,292,995.56,25.2,42,22.84,1.1,1021.24,14.2
2019-07-22 19:40,50.7336,-96.9297283333333,6.9,14.6,294,995.57,25.5,38,22.75,0.1,1021.23,14.2
2019-07-22 19:50,50.73369,-96.92958,8.8,12.4,298,995.46,25.4,40,22.79,0.0,1021.13,14.2
2019-07-22 20:00,50.7335933333333,-96.9296883333333,9.2,11.4,302,995.43,25.4,41,22.88,0.0,1021.08,17.4
2019-07-22 20:10,50.7335866666667,-96.9296783333333,11.1,13.6,315,995.34,25.5,38,22.89,0.0,1021.01,17.4
2019-07-22 20:20,50.7336666666667,-96.9297016666667,9.6,12.3,310,995.37,25.6,39,22.90,0.0,1021.04,17.4
2019-07-22 20:30,50.7210283333333,-96.9326216666667,7.9,14.4,284,995.33,25.5,40,22.89,4.6,1021.01,17.4
2019-07-22 20:40,50.69136,-96.9425983333333,13.7,17.7,237,995.21,25.7,39,22.96,10.9,1020.88,17.4
2019-07-22 20:50,50.661805,-96.9515266666667,12.0,15.9,247,995.29,25.8,38,22.89,10.8,1020.95,17.4
2019-07-22 21:00,50.634,-96.95618,13.8,21.3,245,995.21,26.0,36,22.91,10.1,1020.86,77.1
2019-07-22 21:10,50.6297466666667,-96.9810766666667,13.2,21.7,284,995.05,26.3,33,23.03,5.9,1020.68,77.1
2019-07-22 21:20,50.630445,-96.9807683333333,8.4,13.7,286,995.26,26.7,33,23.20,0.3,1020.87,77.1
2019-07-22 21:30,50.6304266666667,-96.98078,7.1,11.7,281,995.22,27.0,31,23.28,0.0,1020.80,77.1
2019-07-22 21:40,50.6304383333333,-96.9807566666667,5.9,10.5,281,995.16,27.1,32,23.22,0.0,1020.75,77.1
2019-07-22 21:50,50.630445,-96.9807483333333,6.6,11.9,285,995.08,27.1,32,23.29,0.0,1020.66,77.1
2019-07-22 22:00,50.6304433333333,-96.98075,6.8,11.4,278,995.03,27.1,32,23.41,0.0,1020.60,203.2
2019-07-22 22:10,50.6304416666667,-96.9807583333333,6.9,13.4,282,994.92,27.2,32,23.43,0.0,1020.48,203.2
2019-07-22 22:20,50.630445,-96.980765,6.9,12.8,291,994.86,27.2,32,23.46,0.0,1020.42,203.2
2019-07-22 22:30,50.630445,-96.980765,7.8,12.3,306,994.77,27.2,31,23.37,0.0,1020.32,203.2
2019-07-22 22:40,50.6304483333333,-96.9807666666667,6.9,11.2,300,994.72,27.2,32,23.30,0.0,1020.26,203.2
2019-07-22 22:50,50.6304266666667,-96.9807616666667,7.2,11.3,287,994.65,27.2,32,23.05,0.0,1020.19,203.2
2019-07-22 23:00,50.6304383333333,-96.9807616666667,7.2,12.0,292,994.54,27.2,32,22.88,0.0,1020.07,197.4
2019-07-22 23:10,50.6304583333333,-96.9807433333333,5.7,8.9,292,994.54,27.3,32,22.82,0.0,1020.04,197.4
2019-07-22 23:20,50.6304433333333,-96.9807483333333,6.2,11.0,280,994.45,27.3,33,22.81,0.0,1019.94,197.4
2019-07-22 23:30,50.6304433333333,-96.9807566666667,6.1,10.9,285,994.37,27.3,33,22.80,0.0,1019.85,197.4
2019-07-22 23:40,50.6304433333333,-96.9807566666667,7.1,12.0,273,994.31,27.1,32,22.77,0.0,1019.80,197.4
2019-07-22 23:50,50.63044,-96.980755,6.1,10.2,275,994.27,27.1,33,22.78,0.0,1019.76,197.4
